Time,TemperatureF,DewpointF,PressureIn,WindDirection,WindDirectionDegrees,WindSpeedMPH,WindSpeedGustMPH,Humidity,HourlyPrecipIn,Conditions,Clouds,dailyrainin,SolarRadiationWatts/m^2,SoftwareType,DateUTC
2013-05-18 00:01:00,26.0,23.0,-100.00,West,268,11.0,17.0,89,0.00,,,0.01,4.000000,,2013-05-18 08:01:00,
2013-05-18 00:11:00,26.0,23.0,-100.00,West,268,11.0,17.0,89,0.00,,,0.01,4.000000,,2013-05-18 08:11:00,
2013-05-18 00:21:00,26.0,23.0,-100.00,West,268,11.0,17.0,89,0.00,,,0.01,4.000000,,2013-05-18 08:21:00,
2013-05-18 00:52:00,26.0,23.0,-100.00,West,272,11.0,17.0,89,0.00,,,0.01,1.000000,,2013-05-18 08:52:00,
2013-05-18 01:02:00,26.0,23.0,-100.00,West,272,11.0,17.0,89,0.00,,,0.01,1.000000,,2013-05-18 09:02:00,
2013-05-18 01:11:00,26.0,23.0,-100.00,West,272,11.0,17.0,89,0.00,,,0.01,1.000000,,2013-05-18 09:11:00,
2013-05-18 01:22:00,26.0,23.0,-100.00,West,272,11.0,17.0,89,0.00,,,0.01,1.000000,,2013-05-18 09:22:00,
2013-05-18 01:53:00,25.0,22.0,-100.00,West,267,10.0,17.0,89,0.00,,,0.01,0.000000,,2013-05-18 09:53:00,
2013-05-18 02:02:00,25.0,22.0,-100.00,West,267,10.0,17.0,89,0.00,,,0.01,0.000000,,2013-05-18 10:02:00,
2013-05-18 02:12:00,25.0,22.0,-100.00,West,267,10.0,17.0,89,0.00,,,0.01,0.000000,,2013-05-18 10:12:00,
2013-05-18 02:22:00,25.0,22.0,-100.00,West,267,10.0,17.0,89,0.00,,,0.01,0.000000,,2013-05-18 10:22:00,
2013-05-18 02:52:00,25.0,22.0,-100.00,West,267,10.0,16.0,90,0.00,,,0.01,0.000000,,2013-05-18 10:52:00,
2013-05-18 03:02:00,25.0,22.0,-100.00,West,267,10.0,16.0,90,0.00,,,0.01,0.000000,,2013-05-18 11:02:00,
2013-05-18 03:12:00,25.0,22.0,-100.00,West,267,10.0,16.0,90,0.00,,,0.01,0.000000,,2013-05-18 11:12:00,
2013-05-18 03:22:00,25.0,22.0,-100.00,West,267,10.0,16.0,90,0.00,,,0.01,0.000000,,2013-05-18 11:22:00,
2013-05-18 03:52:00,25.0,19.0,-100.00,WNW,290,9.0,17.0,79,0.00,,,0.01,0.000000,,2013-05-18 11:52:00,
2013-05-18 04:01:00,25.0,19.0,-100.00,WNW,290,9.0,17.0,79,0.00,,,0.01,0.000000,,2013-05-18 12:01:00,
2013-05-18 04:12:00,25.0,19.0,-100.00,WNW,290,9.0,17.0,79,0.00,,,0.01,0.000000,,2013-05-18 12:12:00,
2013-05-18 04:23:00,25.0,19.0,-100.00,WNW,290,9.0,17.0,79,0.00,,,0.01,0.000000,,2013-05-18 12:23:00,
2013-05-18 04:52:00,24.0,17.0,-100.00,WNW,290,11.0,18.0,74,0.00,,,0.01,1.000000,,2013-05-18 12:52:00,
2013-05-18 05:01:00,24.0,17.0,-100.00,WNW,290,11.0,18.0,74,0.00,,,0.01,1.000000,,2013-05-18 13:01:00,
2013-05-18 05:11:00,24.0,17.0,-100.00,WNW,290,11.0,18.0,74,0.00,,,0.01,1.000000,,2013-05-18 13:11:00,
2013-05-18 05:21:00,24.0,17.0,-100.00,WNW,290,11.0,18.0,74,0.00,,,0.01,1.000000,,2013-05-18 13:21:00,
2013-05-18 05:52:00,24.0,13.0,-100.00,West,280,9.0,17.0,62,0.00,,,0.01,7.000000,,2013-05-18 13:52:00,
2013-05-18 06:03:00,24.0,13.0,-100.00,West,280,9.0,17.0,62,0.00,,,0.01,7.000000,,2013-05-18 14:03:00,
2013-05-18 06:12:00,24.0,13.0,-100.00,West,280,9.0,17.0,62,0.00,,,0.01,7.000000,,2013-05-18 14:12:00,
2013-05-18 06:22:00,24.0,13.0,-100.00,West,280,9.0,17.0,62,0.00,,,0.01,7.000000,,2013-05-18 14:22:00,
2013-05-18 06:54:00,23.0,12.0,-100.00,West,272,11.0,16.0,63,0.00,,,0.01,52.000000,,2013-05-18 14:54:00,
2013-05-18 07:03:00,23.0,12.0,-100.00,West,272,11.0,16.0,63,0.00,,,0.01,52.000000,,2013-05-18 15:03:00,
2013-05-18 07:13:00,23.0,12.0,-100.00,West,272,11.0,16.0,63,0.00,,,0.01,52.000000,,2013-05-18 15:13:00,
2013-05-18 07:23:00,23.0,12.0,-100.00,West,272,11.0,16.0,63,0.00,,,0.01,52.000000,,2013-05-18 15:23:00,
2013-05-18 07:53:00,24.0,7.0,-100.00,WNW,290,11.0,17.0,48,0.00,,,0.01,185.000000,,2013-05-18 15:53:00,
2013-05-18 08:02:00,24.0,7.0,-100.00,WNW,290,11.0,17.0,48,0.00,,,0.01,185.000000,,2013-05-18 16:02:00,
2013-05-18 08:12:00,24.0,7.0,-100.00,WNW,290,11.0,17.0,48,0.00,,,0.01,185.000000,,2013-05-18 16:12:00,
2013-05-18 08:22:00,24.0,7.0,-100.00,WNW,290,11.0,17.0,48,0.00,,,0.01,185.000000,,2013-05-18 16:22:00,
2013-05-18 08:52:00,25.0,5.0,-100.00,NW,304,12.0,17.0,41,0.00,,,0.01,295.000000,,2013-05-18 16:52:00,
2013-05-18 09:02:00,25.0,5.0,-100.00,NW,304,12.0,17.0,41,0.00,,,0.01,295.000000,,2013-05-18 17:02:00,
2013-05-18 09:12:00,25.0,5.0,-100.00,NW,304,12.0,17.0,41,0.00,,,0.01,295.000000,,2013-05-18 17:12:00,
2013-05-18 09:22:00,25.0,5.0,-100.00,NW,304,12.0,17.0,41,0.00,,,0.01,295.000000,,2013-05-18 17:22:00,
2013-05-18 09:52:00,25.0,5.0,-100.00,WNW,288,10.0,17.0,41,0.00,,,0.01,258.000000,,2013-05-18 17:52:00,
2013-05-18 10:01:00,25.0,5.0,-100.00,WNW,288,10.0,17.0,41,0.00,,,0.01,258.000000,,2013-05-18 18:01:00,
2013-05-18 10:12:00,25.0,5.0,-100.00,WNW,288,10.0,17.0,41,0.00,,,0.01,258.000000,,2013-05-18 18:12:00,
2013-05-18 10:21:00,25.0,5.0,-100.00,WNW,288,10.0,17.0,41,0.00,,,0.01,258.000000,,2013-05-18 18:21:00,
2013-05-18 10:52:00,24.0,5.0,-100.00,WNW,288,12.0,19.0,43,0.00,,,0.01,234.000000,,2013-05-18 18:52:00,
2013-05-18 11:02:00,24.0,5.0,-100.00,WNW,288,12.0,19.0,43,0.00,,,0.01,234.000000,,2013-05-18 19:02:00,
2013-05-18 11:11:00,24.0,5.0,-100.00,WNW,288,12.0,19.0,43,0.00,,,0.01,234.000000,,2013-05-18 19:11:00,
2013-05-18 11:22:00,24.0,5.0,-100.00,WNW,288,12.0,19.0,43,0.00,,,0.01,234.000000,,2013-05-18 19:22:00,
2013-05-18 11:52:00,24.0,9.0,-100.00,WNW,300,11.0,19.0,52,0.00,,,0.00,270.000000,,2013-05-18 19:52:00,
2013-05-18 12:01:00,24.0,9.0,-100.00,WNW,300,11.0,19.0,52,0.00,,,0.00,270.000000,,2013-05-18 20:01:00,
2013-05-18 12:11:00,24.0,9.0,-100.00,WNW,300,11.0,19.0,52,0.00,,,0.00,270.000000,,2013-05-18 20:11:00,
2013-05-18 12:22:00,24.0,9.0,-100.00,WNW,300,11.0,19.0,52,0.00,,,0.00,270.000000,,2013-05-18 20:22:00,
2013-05-18 12:52:00,26.0,7.0,-100.00,WNW,298,11.0,19.0,43,0.00,,,0.00,388.000000,,2013-05-18 20:52:00,
2013-05-18 13:01:00,26.0,7.0,-100.00,WNW,298,11.0,19.0,43,0.00,,,0.00,388.000000,,2013-05-18 21:01:00,
2013-05-18 13:11:00,26.0,7.0,-100.00,WNW,298,11.0,19.0,43,0.00,,,0.00,388.000000,,2013-05-18 21:11:00,
2013-05-18 13:21:00,26.0,7.0,-100.00,WNW,298,11.0,19.0,43,0.00,,,0.00,388.000000,,2013-05-18 21:21:00,
2013-05-18 13:53:00,29.0,5.0,-100.00,West,280,11.0,20.0,36,0.00,,,0.00,590.000000,,2013-05-18 21:53:00,
2013-05-18 14:03:00,29.0,5.0,-100.00,West,280,11.0,20.0,36,0.00,,,0.00,590.000000,,2013-05-18 22:03:00,
2013-05-18 14:12:00,29.0,5.0,-100.00,West,280,11.0,20.0,36,0.00,,,0.00,590.000000,,2013-05-18 22:12:00,
2013-05-18 14:23:00,29.0,5.0,-100.00,West,280,11.0,20.0,36,0.00,,,0.00,590.000000,,2013-05-18 22:23:00,
2013-05-18 14:52:00,31.0,5.0,-100.00,WNW,288,10.0,19.0,32,0.00,,,0.00,627.000000,,2013-05-18 22:52:00,
2013-05-18 15:01:00,31.0,5.0,-100.00,WNW,288,10.0,19.0,32,0.00,,,0.00,627.000000,,2013-05-18 23:01:00,
2013-05-18 15:11:00,31.0,5.0,-100.00,WNW,288,10.0,19.0,32,0.00,,,0.00,627.000000,,2013-05-18 23:11:00,
2013-05-18 15:21:00,31.0,5.0,-100.00,WNW,288,10.0,19.0,32,0.00,,,0.00,627.000000,,2013-05-18 23:21:00,
2013-05-18 15:53:00,31.0,4.0,-100.00,West,277,11.0,18.0,31,0.01,,,0.01,554.000000,,2013-05-18 23:53:00,
2013-05-18 16:01:00,31.0,4.0,-100.00,West,277,11.0,18.0,31,0.01,,,0.01,554.000000,,2013-05-19 00:01:00,
2013-05-18 16:11:00,31.0,4.0,-100.00,West,277,11.0,18.0,31,0.01,,,0.01,554.000000,,2013-05-19 00:11:00,
2013-05-18 16:21:00,31.0,4.0,-100.00,West,277,11.0,18.0,31,0.01,,,0.01,554.000000,,2013-05-19 00:21:00,
2013-05-18 16:52:00,33.0,5.0,-100.00,WNW,291,10.0,20.0,30,0.00,,,0.01,595.000000,,2013-05-19 00:52:00,
2013-05-18 17:01:00,33.0,5.0,-100.00,WNW,291,10.0,20.0,30,0.00,,,0.01,595.000000,,2013-05-19 01:01:00,
2013-05-18 17:11:00,33.0,5.0,-100.00,WNW,291,10.0,20.0,30,0.00,,,0.01,595.000000,,2013-05-19 01:11:00,
2013-05-18 17:21:00,33.0,5.0,-100.00,WNW,291,10.0,20.0,30,0.00,,,0.01,595.000000,,2013-05-19 01:21:00,
2013-05-18 17:52:00,34.0,4.0,-100.00,WNW,292,10.0,18.0,27,0.00,,,0.01,571.000000,,2013-05-19 01:52:00,
2013-05-18 18:01:00,34.0,4.0,-100.00,WNW,292,10.0,18.0,27,0.00,,,0.01,571.000000,,2013-05-19 02:01:00,
2013-05-18 18:11:00,34.0,4.0,-100.00,WNW,292,10.0,18.0,27,0.00,,,0.01,571.000000,,2013-05-19 02:11:00,
2013-05-18 18:21:00,34.0,4.0,-100.00,WNW,292,10.0,18.0,27,0.00,,,0.01,571.000000,,2013-05-19 02:21:00,
2013-05-18 18:52:00,35.0,4.0,-100.00,WNW,290,9.0,19.0,26,0.00,,,0.01,493.000000,,2013-05-19 02:52:00,
2013-05-18 19:01:00,35.0,4.0,-100.00,WNW,290,9.0,19.0,26,0.00,,,0.01,493.000000,,2013-05-19 03:01:00,
2013-05-18 19:11:00,35.0,4.0,-100.00,WNW,290,9.0,19.0,26,0.00,,,0.01,493.000000,,2013-05-19 03:11:00,
2013-05-18 19:21:00,35.0,4.0,-100.00,WNW,290,9.0,19.0,26,0.00,,,0.01,493.000000,,2013-05-19 03:21:00,
2013-05-18 19:53:00,34.0,3.0,-100.00,WNW,289,11.0,19.0,26,0.00,,,0.01,323.000000,,2013-05-19 03:53:00,
2013-05-18 20:02:00,34.0,3.0,-100.00,WNW,289,11.0,19.0,26,0.00,,,0.01,323.000000,,2013-05-19 04:02:00,
2013-05-18 20:12:00,34.0,3.0,-100.00,WNW,289,11.0,19.0,26,0.00,,,0.01,323.000000,,2013-05-19 04:12:00,
2013-05-18 20:23:00,34.0,3.0,-100.00,WNW,289,11.0,19.0,26,0.00,,,0.01,323.000000,,2013-05-19 04:23:00,
2013-05-18 20:53:00,34.0,4.0,-100.00,NW,305,11.0,19.0,28,0.00,,,0.01,227.000000,,2013-05-19 04:53:00,
2013-05-18 21:02:00,34.0,4.0,-100.00,NW,305,11.0,19.0,28,0.00,,,0.01,227.000000,,2013-05-19 05:02:00,
2013-05-18 21:12:00,34.0,4.0,-100.00,NW,305,11.0,19.0,28,0.00,,,0.01,227.000000,,2013-05-19 05:12:00,
2013-05-18 21:21:00,34.0,4.0,-100.00,NW,305,11.0,19.0,28,0.00,,,0.01,227.000000,,2013-05-19 05:21:00,
2013-05-18 21:52:00,33.0,6.0,-100.00,WNW,298,10.0,17.0,32,0.00,,,0.01,160.000000,,2013-05-19 05:52:00,
2013-05-18 22:02:00,33.0,6.0,-100.00,WNW,298,10.0,17.0,32,0.00,,,0.01,160.000000,,2013-05-19 06:02:00,
2013-05-18 22:12:00,33.0,6.0,-100.00,WNW,298,10.0,17.0,32,0.00,,,0.01,160.000000,,2013-05-19 06:12:00,
2013-05-18 22:21:00,33.0,6.0,-100.00,WNW,298,10.0,17.0,32,0.00,,,0.01,160.000000,,2013-05-19 06:21:00,
2013-05-18 22:52:00,30.0,6.0,-100.00,WNW,282,8.0,14.0,36,0.00,,,0.01,52.000000,,2013-05-19 06:52:00,
2013-05-18 23:01:00,30.0,6.0,-100.00,WNW,282,8.0,14.0,36,0.00,,,0.01,52.000000,,2013-05-19 07:01:00,
2013-05-18 23:11:00,30.0,6.0,-100.00,WNW,282,8.0,14.0,36,0.00,,,0.01,52.000000,,2013-05-19 07:11:00,
2013-05-18 23:21:00,30.0,6.0,-100.00,WNW,282,8.0,14.0,36,0.00,,,0.01,52.000000,,2013-05-19 07:21:00,
2013-05-18 23:52:00,29.0,8.0,-100.00,West,276,6.0,12.0,41,0.00,,,0.01,14.000000,,2013-05-19 07:52:00,